When you browse on this site, cookies collect data to enhance your experience and personalize the content and advertising you see.
Visit our Privacy Policy to learn more. By continuing to use the site, you agree to this use of cookies and data.
  • In Czech Republic
  • List of Countries
  • For 7 days
  • Water Temperature
  • Weather Map
  • Weather Widgets
  • user-avatar
    Login

    Hourly Weather San Pedro Sula

    Today, 22 October, Tuesday

    Time Temperature Precipitation Wind Pressure Humidity
    00:00 +25°C° 0.2 mm 1 mps 743 mmHg 90%
    01:00 +25°C° 0 mm 1 mps 743 mmHg 91%
    02:00 +25°C° 0 mm 1 mps 743 mmHg 91%
    03:00 +25°C° 0 mm 1 mps 743 mmHg 91%
    04:00 +25°C° 0 mm 1 mps 743 mmHg 91%
    05:00 +25°C° 0 mm 1 mps 743 mmHg 91%
    06:00 +25°C° 0 mm 1 mps 744 mmHg 91%
    07:00 +27°C° 0.2 mm 1 mps 744 mmHg 85%
    08:00 +29°C° 0.2 mm 1 mps 745 mmHg 78%
    09:00 +31°C° 0.2 mm 1 mps 745 mmHg 72%
    10:00 +31°C° 0.4 mm 1 mps 744 mmHg 68%
    11:00 +32°C° 0.4 mm 1 mps 744 mmHg 64%
    12:00 +33°C° 0.4 mm 1 mps 743 mmHg 60%
    13:00 +32°C° 1 mm 2 mps 743 mmHg 66%
    14:00 +32°C° 1 mm 2 mps 742 mmHg 71%
    15:00 +31°C° 1 mm 2 mps 742 mmHg 77%
    16:00 +29°C° 1.7 mm 1 mps 742 mmHg 81%
    17:00 +28°C° 1.7 mm 1 mps 742 mmHg 86%
    18:00 +26°C° 1.7 mm 1 mps 742 mmHg 91%
    19:00 +26°C° 0.1 mm 1 mps 743 mmHg 91%
    20:00 +26°C° 0.1 mm 1 mps 743 mmHg 92%
    21:00 +24°C° 0.1 mm 0 mps 744 mmHg 92%
    22:00 +26°C° 0 mm 1 mps 744 mmHg 92%
    23:00 +25°C° 0 mm 1 mps 743 mmHg 92%

    Tomorrow, 23 October, Wednesday

    Time Temperature Precipitation Wind Pressure Humidity
    00:00 +25°C° 0 mm 1 mps 743 mmHg 93%
    01:00 +25°C° 0.2 mm 1 mps 743 mmHg 93%
    02:00 +25°C° 0.2 mm 1 mps 743 mmHg 93%
    03:00 +25°C° 0.2 mm 1 mps 743 mmHg 93%
    04:00 +25°C° 0.2 mm 1 mps 743 mmHg 93%
    05:00 +25°C° 0.2 mm 1 mps 743 mmHg 94%
    06:00 +25°C° 0.2 mm 1 mps 743 mmHg 94%
    07:00 +26°C° 0.1 mm 1 mps 744 mmHg 89%
    08:00 +27°C° 0.1 mm 1 mps 744 mmHg 85%
    09:00 +28°C° 0.1 mm 1 mps 745 mmHg 81%
    10:00 +29°C° 0.7 mm 1 mps 744 mmHg 79%
    11:00 +30°C° 0.7 mm 1 mps 744 mmHg 77%
    12:00 +30°C° 0.7 mm 2 mps 743 mmHg 76%
    13:00 +30°C° 1.3 mm 2 mps 743 mmHg 81%
    14:00 +29°C° 1.3 mm 1 mps 742 mmHg 86%
    15:00 +28°C° 1.3 mm 1 mps 742 mmHg 91%
    16:00 +27°C° 0.4 mm 1 mps 742 mmHg 92%
    17:00 +27°C° 0.4 mm 1 mps 742 mmHg 93%
    18:00 +24°C° 0.4 mm 0 mps 743 mmHg 93%
    19:00 +24°C° 1.1 mm 0 mps 743 mmHg 94%
    20:00 +24°C° 1.1 mm 0 mps 744 mmHg 95%
    21:00 +23°C° 1.1 mm 0 mps 744 mmHg 96%
    22:00 +23°C° 0.2 mm 0 mps 744 mmHg 96%
    23:00 +23°C° 0.2 mm 0 mps 744 mmHg 96%

    Day after tomorrow, 24 October, Thursday

    Time Temperature Precipitation Wind Pressure Humidity
    00:00 +23°C° 0.2 mm 0 mps 743 mmHg 96%
    01:00 +23°C° 0 mm 0 mps 743 mmHg 96%
    02:00 +23°C° 0 mm 0 mps 743 mmHg 96%
    03:00 +22°C° 0 mm 0 mps 743 mmHg 96%
    04:00 +22°C° 0 mm 0 mps 743 mmHg 95%
    05:00 +22°C° 0 mm 0 mps 743 mmHg 95%
    06:00 +22°C° 0 mm 0 mps 743 mmHg 95%
    07:00 +24°C° 0 mm 0 mps 744 mmHg 87%
    08:00 +26°C° 0 mm 0 mps 744 mmHg 80%
    09:00 +28°C° 0 mm 0 mps 745 mmHg 72%
    10:00 +31°C° 0 mm 1 mps 744 mmHg 66%
    11:00 +32°C° 0 mm 1 mps 743 mmHg 61%
    12:00 +33°C° 0 mm 1 mps 743 mmHg 55%
    13:00 +34°C° 0.1 mm 2 mps 742 mmHg 59%
    14:00 +32°C° 0.1 mm 2 mps 741 mmHg 62%
    15:00 +32°C° 0.1 mm 2 mps 741 mmHg 65%
    16:00 +30°C° 0.3 mm 2 mps 741 mmHg 74%
    17:00 +28°C° 0.3 mm 2 mps 741 mmHg 83%
    18:00 +26°C° 0.3 mm 1 mps 742 mmHg 93%
    19:00 +26°C° 0.2 mm 1 mps 742 mmHg 94%
    20:00 +26°C° 0.2 mm 1 mps 743 mmHg 95%
    21:00 +25°C° 0.2 mm 1 mps 743 mmHg 96%
    22:00 +25°C° 0.2 mm 1 mps 743 mmHg 96%
    23:00 +25°C° 0.2 mm 1 mps 743 mmHg 96%

    25 October, Friday

    Time Temperature Precipitation Wind Pressure Humidity
    00:00 +23°C° 0.2 mm 0 mps 743 mmHg 96%
    01:00 +25°C° 0.1 mm 1 mps 743 mmHg 96%
    02:00 +24°C° 0.1 mm 1 mps 743 mmHg 96%
    03:00 +24°C° 0.1 mm 1 mps 742 mmHg 96%
    04:00 +24°C° 0 mm 1 mps 743 mmHg 96%
    05:00 +24°C° 0 mm 1 mps 743 mmHg 96%
    06:00 +24°C° 0 mm 1 mps 743 mmHg 95%
    07:00 +26°C° 0 mm 1 mps 743 mmHg 88%
    08:00 +28°C° 0 mm 1 mps 744 mmHg 80%
    09:00 +30°C° 0 mm 1 mps 744 mmHg 72%
    10:00 +31°C° 0.1 mm 1 mps 743 mmHg 67%
    11:00 +32°C° 0.1 mm 1 mps 743 mmHg 62%
    12:00 +34°C° 0.1 mm 1 mps 742 mmHg 57%
    13:00 +33°C° 0.3 mm 1 mps 742 mmHg 62%
    14:00 +32°C° 0.3 mm 2 mps 741 mmHg 67%
    15:00 +32°C° 0.3 mm 2 mps 740 mmHg 71%
    16:00 +30°C° 0.7 mm 2 mps 741 mmHg 79%
    17:00 +28°C° 0.7 mm 2 mps 741 mmHg 86%
    18:00 +27°C° 0.7 mm 1 mps 741 mmHg 94%
    19:00 +26°C° 0.5 mm 1 mps 742 mmHg 95%
    20:00 +26°C° 0.5 mm 1 mps 742 mmHg 95%
    21:00 +25°C° 0.5 mm 1 mps 743 mmHg 96%
    22:00 +23°C° 0.3 mm 0 mps 743 mmHg 95%
    23:00 +23°C° 0.3 mm 0 mps 743 mmHg 95%

    26 October, Saturday

    Time Temperature Precipitation Wind Pressure Humidity
    00:00 +23°C° 0.3 mm 0 mps 743 mmHg 95%
    01:00 +23°C° 0.1 mm 0 mps 742 mmHg 95%
    02:00 +25°C° 0.1 mm 1 mps 742 mmHg 95%
    03:00 +24°C° 0.1 mm 1 mps 742 mmHg 96%
    04:00 +24°C° 0.1 mm 1 mps 742 mmHg 96%
    05:00 +24°C° 0.1 mm 1 mps 742 mmHg 96%
    06:00 +24°C° 0.1 mm 1 mps 743 mmHg 95%
    07:00 +26°C° 0 mm 1 mps 743 mmHg 87%
    08:00 +28°C° 0 mm 1 mps 743 mmHg 79%
    09:00 +30°C° 0 mm 1 mps 744 mmHg 71%
    10:00 +31°C° 0.1 mm 1 mps 743 mmHg 69%
    11:00 +32°C° 0.1 mm 1 mps 743 mmHg 68%
    12:00 +32°C° 0.1 mm 2 mps 742 mmHg 66%
    13:00 +32°C° 0.7 mm 2 mps 742 mmHg 68%
    14:00 +31°C° 0.7 mm 2 mps 741 mmHg 71%
    15:00 +31°C° 0.7 mm 2 mps 741 mmHg 74%
    16:00 +29°C° 0.5 mm 1 mps 741 mmHg 79%
    17:00 +28°C° 0.5 mm 1 mps 742 mmHg 84%
    18:00 +26°C° 0.5 mm 1 mps 742 mmHg 89%
    19:00 +26°C° 0.5 mm 1 mps 743 mmHg 91%
    20:00 +25°C° 0.5 mm 2 mps 744 mmHg 92%
    21:00 +25°C° 0.5 mm 2 mps 744 mmHg 94%
    22:00 +25°C° 0.4 mm 2 mps 744 mmHg 94%
    23:00 +24°C° 0.4 mm 2 mps 744 mmHg 95%

    27 October, Sunday

    Time Temperature Precipitation Wind Pressure Humidity
    00:00 +24°C° 0.4 mm 2 mps 744 mmHg 95%
    01:00 +24°C° 0 mm 2 mps 744 mmHg 95%
    02:00 +24°C° 0 mm 1 mps 744 mmHg 94%
    03:00 +24°C° 0 mm 1 mps 744 mmHg 94%
    04:00 +24°C° 0 mm 1 mps 744 mmHg 94%
    05:00 +24°C° 0 mm 1 mps 744 mmHg 94%
    06:00 +24°C° 0 mm 1 mps 744 mmHg 94%
    07:00 +25°C° 0 mm 1 mps 745 mmHg 86%
    08:00 +27°C° 0 mm 1 mps 745 mmHg 79%
    09:00 +29°C° 0 mm 1 mps 745 mmHg 71%
    10:00 +29°C° 0.1 mm 1 mps 745 mmHg 69%
    11:00 +30°C° 0.1 mm 2 mps 744 mmHg 67%
    12:00 +31°C° 0.1 mm 2 mps 744 mmHg 64%
    13:00 +31°C° 0.1 mm 2 mps 743 mmHg 66%
    14:00 +30°C° 0.1 mm 2 mps 743 mmHg 67%
    15:00 +30°C° 0.1 mm 2 mps 742 mmHg 68%
    16:00 +29°C° 0.1 mm 2 mps 743 mmHg 74%
    17:00 +27°C° 0.1 mm 1 mps 743 mmHg 81%
    18:00 +26°C° 0.1 mm 1 mps 744 mmHg 87%
    19:00 +25°C° 0 mm 1 mps 744 mmHg 88%
    20:00 +25°C° 0 mm 1 mps 745 mmHg 88%
    21:00 +25°C° 0 mm 1 mps 745 mmHg 89%
    22:00 +25°C° 0 mm 1 mps 745 mmHg 90%
    23:00 +24°C° 0 mm 1 mps 745 mmHg 90%

    28 October, Monday

    Time Temperature Precipitation Wind Pressure Humidity
    00:00 +24°C° 0 mm 1 mps 745 mmHg 90%
    01:00 +24°C° 0 mm 1 mps 745 mmHg 91%
    02:00 +24°C° 0 mm 1 mps 744 mmHg 92%
    03:00 +24°C° 0 mm 1 mps 744 mmHg 92%
    04:00 +24°C° 0 mm 1 mps 744 mmHg 92%
    05:00 +24°C° 0 mm 1 mps 745 mmHg 92%
    06:00 +24°C° 0 mm 1 mps 745 mmHg 91%
    07:00 +25°C° 0 mm 1 mps 745 mmHg 86%
    08:00 +27°C° 0 mm 1 mps 745 mmHg 81%
    09:00 +28°C° 0 mm 1 mps 746 mmHg 75%
    10:00 +29°C° 0.2 mm 1 mps 745 mmHg 75%
    11:00 +29°C° 0.2 mm 1 mps 745 mmHg 74%
    12:00 +30°C° 0.2 mm 2 mps 744 mmHg 73%
    13:00 +29°C° 1 mm 2 mps 744 mmHg 76%
    14:00 +29°C° 1 mm 2 mps 743 mmHg 79%
    15:00 +29°C° 1 mm 2 mps 742 mmHg 82%
    16:00 +28°C° 0.7 mm 1 mps 743 mmHg 86%
    17:00 +26°C° 0.7 mm 1 mps 743 mmHg 89%
    18:00 +25°C° 0.7 mm 1 mps 744 mmHg 92%
    19:00 +25°C° 0.4 mm 1 mps 744 mmHg 93%
    20:00 +23°C° 0.4 mm 0 mps 744 mmHg 93%
    21:00 +22°C° 0.4 mm 0 mps 745 mmHg 94%
    22:00 +22°C° 0.3 mm 0 mps 745 mmHg 94%
    23:00 +24°C° 0.3 mm 1 mps 745 mmHg 94%
    Show more